Regional Weather Roundup
Issued by NWS Cleveland, OH

Home | Current Version | Previous Version | Graphics & Text | Print | Product List | Glossary On
Versions: 1 2 3 4 5 6 7 8 9 10 11 12 13 14 15 16 17 18 19 20 21 22 23 24 25 26 27 28 29 30 31 32 33 34 35 36 37 38 39 40 41 42 43 44 45 46 47 48 49 50
000
ASUS41 KCLE 280002
RWRCLE
OHIO REGIONAL WEATHER ROUNDUP
NATIONAL WEATHER SERVICE CLEVELAND, OH
800 PM EDT MON MAR 27 2017

NOTE: "FAIR" INDICATES FEW OR NO CLOUDS BELOW 12,000 FEET WITH NO
SIGNIFICANT WEATHER AND/OR OBSTRUCTIONS TO VISIBILITY.

OHZ001>008-015>018-024>027-034-035-043-044-280100-
   NORTHWEST OHIO

CITY           SKY/WX    TMP DP  RH WIND       PRES   REMARKS
DEFIANCE       CLOUDY    57  49  74 CALM      29.88S
FINDLAY        CLOUDY    60  50  69 S3        29.87S
TOLEDO EXPRESS CLOUDY    57  49  74 CALM      29.88S
TOLEDO EXEC    CLOUDY    58  51  78 CALM      29.89S
LIMA           LGT RAIN  56  54  93 CALM      29.87S
$$

OHZ009>014-019>023-028>033-038-089-280100-
   NORTHEAST OHIO

CITY           SKY/WX    TMP DP  RH WIND       PRES   REMARKS
CLE-HOPKINS    MOCLDY    55  46  71 N6        29.93R
CLE-LAKEFRONT  CLOUDY    54  48  80 NE3       29.90S
CUY CO. ARPT   PTCLDY    55  50  82 CALM      29.91S
LORAIN-ELYRIA  MOCLDY    57  47  69 CALM      29.90S
ASHTABULA      CLOUDY    53  49  86 CALM      29.92S
AKRON-CANTON   CLOUDY    59  46  62 CALM      29.90R
WOOSTER        PTCLDY    58  49  72 N5        29.90S
MANSFIELD      CLOUDY    59  50  72 CALM      29.89S
YOUNGSTOWN     CLOUDY    59  46  62 CALM      29.90S
$$

OHZ042-051>053-060>062-070>072-077>081-280100-
  SOUTHWEST OHIO

CITY           SKY/WX    TMP DP  RH WIND       PRES   REMARKS
CINC-COVINGTON LGT RAIN  65  57  75 S17       29.82F
CINC-LUNKEN    LGT RAIN  63  61  93 E5        29.83S
HAMILTON       HVY RAIN  62  59  90 CALM      29.85R FOG
DAYTON         CLOUDY    59  51  75 E6        29.87S
WRIGHT-PAT AFB CLOUDY    62  53  72 E5        29.86F
DAYTON GENERAL CLOUDY    61  53  75 E7        29.84F
WILMINGTON     CLOUDY    62  55  77 SE5       29.86S
$$

OHZ036-037-039>041-045>050-054>059-063>069-073>076-082>088-280100-
  CENTRAL AND SOUTHEAST OHIO

CITY           SKY/WX    TMP DP  RH WIND       PRES   REMARKS
COLUMBUS       CLOUDY    64  52  64 CALM      29.87F
OSU AIRPORT    CLOUDY    62  52  69 SE3       29.87F
BOLTON FIELD   NOT AVBL
RICKENBACK AFB CLOUDY    61  53  77 NE3       29.87S
NEWARK         CLOUDY    61  52  72 CALM      29.87F
MARION         CLOUDY    60  51  72 CALM      29.89S
LANCASTER      PTCLDY    60  53  77 N3        29.88S
ZANESVILLE     CLOUDY    64  50  60 CALM      29.88F
NEW PHILLY     NOT AVBL
$$




USA.gov is the U.S. government's official web portal to all federal, state and local government web resources and services.